Camden, MI (49232)

8:36 AM EDT on September 04, 2015 (GMT -0400)
Hillsdale Municipal | | Change Station
CLOSE
Current Station
Airport
Location: Hillsdale,
Elevation: 1181 ft
Nearby Weather Stations

Elev 1181 ft 41.92 °N, 84.59 °W | Updated 21 minutes ago

Overcast
Overcast
69 °F
Feels Like 69 °F
N
0
Wind Variable Wind from North

Today
High -- | Low -- °F
--% Chance of Precip.
Yesterday
High -- | Low -- °F
Precip. -- in
7:07 AM 8:07 PM
Waning Gibbous, 60% visible
Pressure 30.01 in
Visibility 1.2 miles
Clouds Overcast 400 ft
Dew Point 69 °F
Humidity 100%
Rainfall 0.00 in
Snow Depth Not available.
UV 0 out of 12
Pollen 6.60 out of 12
Air Quality Not available.
Flu Activity Not available.
METAR KJYM 041215Z AUTO 00000KT 1 1/4SM BR OVC004 21/21 A3001 RMK AO2 T02060206
Pressure 30.01 in
Visibility 1.2 miles
Clouds Overcast 400 ft
Dew Point 69 °F
Humidity 100%
Rainfall 0.00 in
Snow Depth Not available.
UV 0 out of 12
Pollen 6.60 out of 12
Air Quality Not available.
Flu Activity Not available.
METAR KJYM 041215Z AUTO 00000KT 1 1/4SM BR OVC004 21/21 A3001 RMK AO2 T02060206

10-Day Weather Forecast

×

Almanac

Astronomy

Sep. 04, 2015 Rise Set
Actual Time
Civil Twilight
Nautical Twilight
Astronomical Twilight
Moon
Length of Visible Light
Length of Day
Tomorrow will be .
, % of the Moon is Illuminated

Today's Extremes

State Highs State Lows

Community

WunderPhotos

Upload Photos

1,852,170 photos uploaded!

WunderBlogs® & News

Nearby

Air Quality

  Air Quality AQ Index Pollutant
Not available.

Snow Depth

Station Depth Elevation

Earthquake Activity

City Distance Mag. Time & Date
Minimum magnitude displayed is 2.5.

Coastal Water Temperatures

Place Temperature

Stations

Nearby Weather Stations

Station Location Temp. Windchill Dew Point Humidity Wind Precip. Elev Updated Type